AAL1159 KMIA-KLAX

Flight info

Callsign AAL1159
Flight time N/A
Altitude 30000
Route GLADZ4 BAGGS REMIS Y280 LEV J86 PEKON/N0456F320 J86 ELP J50 SSO J4 WLVRN ESTWD HLYWD1
Aircraft B77W/H-SDE1E2E3FGHIJ2J3J4J5M1RWXYZ/LB1D1

Departure

Time 2026-05-03 20:15
Airport Miami International Airport (KMIA)

Arrival

Time N/A
Airport Los Angeles International Airport (KLAX)
Time Latitude Longitude Altitude Speed Heading
2026-05-03 20:15 25.81583 -80.17328 4219 ft 273 kts 45°
2026-05-03 20:15 25.83150 -80.16157 5041 ft 277 kts 17°
2026-05-03 20:15 25.85041 -80.15825 5960 ft 279 kts
2026-05-03 20:15 25.86983 -80.15781 6832 ft 284 kts 358°
2026-05-03 20:16 25.88971 -80.15782 7226 ft 285 kts 351°
2026-05-03 20:16 25.90917 -80.16249 7298 ft 285 kts 341°
2026-05-03 20:16 25.92807 -80.16899 7300 ft 283 kts 339°
2026-05-03 20:16 25.94691 -80.17565 7302 ft 282 kts 339°
2026-05-03 20:17 25.96497 -80.18388 7297 ft 279 kts 325°
2026-05-03 20:17 25.97955 -80.19795 7295 ft 277 kts 306°
2026-05-03 20:17 25.98890 -80.21639 7290 ft 273 kts 287°
2026-05-03 20:17 25.99306 -80.23688 7303 ft 273 kts 278°
2026-05-03 20:18 25.99603 -80.25837 7944 ft 285 kts 277°
2026-05-03 20:18 25.99767 -80.27945 9245 ft 273 kts 270°
2026-05-03 20:18 25.99779 -80.30022 10214 ft 273 kts 269°
2026-05-03 20:18 25.99771 -80.32174 10813 ft 288 kts 268°
2026-05-03 20:19 25.99766 -80.34457 11334 ft 305 kts 269°
2026-05-03 20:19 25.99763 -80.36876 11873 ft 321 kts 269°
2026-05-03 20:19 25.99748 -80.39413 12431 ft 336 kts 266°
2026-05-03 20:19 25.99366 -80.41995 13144 ft 344 kts 253°
2026-05-03 20:20 25.98434 -80.44418 14095 ft 346 kts 241°
2026-05-03 20:20 25.97065 -80.46602 15062 ft 347 kts 235°
2026-05-03 20:20 25.95591 -80.48727 15942 ft 350 kts 234°
2026-05-03 20:20 25.94086 -80.50866 16709 ft 355 kts 234°
2026-05-03 20:21 25.92556 -80.53035 17485 ft 359 kts 234°
2026-05-03 20:21 25.91016 -80.55215 18327 ft 361 kts 235°
2026-05-03 20:21 25.89466 -80.57408 19131 ft 363 kts 235°
2026-05-03 20:21 25.87902 -80.59620 19901 ft 366 kts 234°
2026-05-03 20:22 25.86328 -80.61843 20634 ft 370 kts 235°
2026-05-03 20:22 25.84736 -80.64092 21338 ft 373 kts 235°
2026-05-03 20:22 25.83132 -80.66357 22074 ft 374 kts 234°
2026-05-03 20:22 25.81519 -80.68633 22807 ft 376 kts 234°
2026-05-03 20:23 25.79917 -80.70928 23488 ft 378 kts 237°
2026-05-03 20:23 25.78573 -80.73428 24104 ft 380 kts 245°
2026-05-03 20:23 25.77599 -80.76152 24734 ft 382 kts 252°
2026-05-03 20:23 25.76826 -80.78973 25405 ft 384 kts 253°
2026-05-03 20:24 25.76059 -80.81815 26053 ft 387 kts 253°
2026-05-03 20:24 25.75283 -80.84681 26634 ft 391 kts 253°
2026-05-03 20:24 25.74497 -80.87571 27252 ft 394 kts 253°
2026-05-03 20:24 25.73705 -80.90483 27847 ft 397 kts 252°
2026-05-03 20:25 25.72902 -80.93428 28431 ft 401 kts 252°
2026-05-03 20:25 25.72095 -80.96384 29031 ft 404 kts 252°
2026-05-03 20:25 25.71283 -80.99356 29674 ft 405 kts 252°
2026-05-03 20:25 25.70463 -81.02351 29944 ft 407 kts 252°
2026-05-03 20:26 25.69644 -81.05340 29964 ft 404 kts 252°
2026-05-03 20:26 25.68021 -81.11256 29969 ft 400 kts 252°
2026-05-03 20:27 25.66401 -81.17151 29968 ft 402 kts 252°
2026-05-03 20:27 25.65609 -81.23276 29962 ft 405 kts 270°
2026-05-03 20:28 25.66905 -81.29388 29961 ft 418 kts 289°
2026-05-03 20:28 25.69485 -81.35150 29966 ft 420 kts 291°
2026-05-03 20:29 25.72125 -81.40931 29990 ft 420 kts 291°
2026-05-03 20:29 25.74762 -81.46725 29992 ft 422 kts 290°
2026-05-03 20:30 25.77391 -81.52507 29997 ft 420 kts 291°
2026-05-03 20:30 25.80026 -81.58319 29992 ft 421 kts 291°
2026-05-03 20:31 25.82642 -81.64092 30008 ft 420 kts 291°
2026-05-03 20:31 25.85263 -81.69887 30021 ft 418 kts 290°
2026-05-03 20:32 25.87906 -81.75648 30019 ft 422 kts 294°
2026-05-03 20:32 25.91788 -81.80676 30030 ft 440 kts 313°
2026-05-03 20:33 25.96693 -81.84820 30028 ft 442 kts 315°
2026-05-03 20:33 26.01633 -81.88946 30034 ft 446 kts 315°
2026-05-03 20:34 26.06564 -81.93079 30031 ft 442 kts 315°
2026-05-03 20:34 26.11469 -81.97202 30027 ft 441 kts 315°
2026-05-03 20:35 26.16376 -82.01337 30031 ft 442 kts 315°
2026-05-03 20:35 26.21287 -82.05480 30024 ft 443 kts 315°
2026-05-03 20:36 26.26179 -82.09611 30024 ft 440 kts 315°
2026-05-03 20:36 26.31060 -82.13740 30026 ft 442 kts 315°
2026-05-03 20:37 26.35939 -82.17869 30020 ft 438 kts 314°
2026-05-03 20:37 26.40799 -82.21990 30023 ft 440 kts 314°
2026-05-03 20:38 26.45667 -82.26121 30030 ft 440 kts 314°
2026-05-03 20:38 26.50535 -82.30255 30027 ft 439 kts 315°
2026-05-03 20:39 26.55376 -82.34371 30033 ft 436 kts 314°
2026-05-03 20:39 26.60198 -82.38476 30038 ft 434 kts 314°
2026-05-03 20:40 26.65014 -82.42581 30028 ft 436 kts 314°
2026-05-03 20:40 26.69835 -82.46694 30038 ft 436 kts 314°
2026-05-03 20:41 26.74651 -82.50808 30039 ft 438 kts 314°
2026-05-03 20:41 26.79470 -82.54928 30043 ft 434 kts 314°
2026-05-03 20:42 26.84267 -82.59034 30039 ft 434 kts 314°
2026-05-03 20:42 26.89069 -82.63149 30047 ft 435 kts 314°
2026-05-03 20:43 26.93864 -82.67262 30061 ft 434 kts 314°
2026-05-03 20:43 26.98656 -82.71377 30059 ft 432 kts 314°
2026-05-03 20:44 27.03435 -82.75486 30062 ft 433 kts 314°
2026-05-03 20:44 27.08203 -82.79589 30058 ft 431 kts 314°
2026-05-03 20:45 27.11886 -82.83318 30050 ft 422 kts 302°